Regional Weather Roundup
Issued by NWS

Home | Current Version | Previous Version | Text Only | Print | Product List | Glossary Off
Versions: 1 2 3 4 5 6 7 8 9 10 11 12 13 14 15 16 17 18 19 20 21 22 23 24 25 26 27 28 29 30 31 32 33 34 35 36 37 38 39 40 41 42 43 44 45 46 47 48 49 50

000
ASUS45 KTFX 161319
RWRMT
MONTANA HOURLY WEATHER ROUNDUP
NATIONAL WEATHER SERVICE GREAT FALLS MT
719 AM MDT TUE SEP 16 2014

NOTE: "FAIR" INDICATES FEW OR NO CLOUDS BELOW 12000 FEET WITH NO
SIGNIFICANT WEATHER AND/OR OBSTRUCTIONS TO VISIBILITY.

* THESE STATIONS ARE NOT UNDER NWS QUALITY CONTROL. THEY DO NOT
   REPORT WEATHER SUCH AS PRECIPITATION OR FOG.

MTZ001>007-043-161400-
WEST OF THE DIVIDE
CITY           SKY/WX    TMP DP  RH WIND       PRES   REMARKS
KALISPELL      PTCLDY    39  36  89 NW3       30.02R
MISSOULA       CLEAR     43  34  71 N3        30.06S
BUTTE          PTCLDY    37  30  76 S3        30.17S
MULLAN PASS    CLEAR     63  25  24 S3        30.11F
* ESSEX        N/A       37  34  89 SE2        N/A
* LINCOLN      N/A       31  26  82 N/A        N/A
* LOOKOUT PASS N/A       48  33  56 S4         N/A
* POLSON       N/A       48  33  56 N/A        N/A
* RONAN APT    CLEAR     37  34  89 N/A        N/A
* SEELEY LAKE  N/A       32  27  82 N/A        N/A
* THOMP F APT  CLEAR     58  30  35 NE2G10     N/A
$$

MTZ008-052>055-161400-
SOUTHWEST MONTANA
CITY           SKY/WX    TMP DP  RH WIND       PRES   REMARKS
BOZEMAN        MOCLDY    37  34  89 SE7       30.13R WCI  32
DILLON         MOCLDY    48  30  50 S7        30.14S
W YELLOWSTONE  MOCLDY    36  28  73 CALM      30.27S
* THREE FORKS  MOCLDY    39  18  43 N/A        N/A
* BOULDER HILL N/A       48  25  41 S12        N/A
* RAYNOLDS PAS N/A       50  35  57 S10        N/A
* WHITEHALL    N/A       39  34  82 N1G7       N/A
* WISE RIVER   N/A       36  28  73 W5         N/A   WCI  32
$$

MTZ009>010-012-014-046-048-049-054-161400-
EAST SLOPES AND CENTRAL MONTANA
CITY           SKY/WX    TMP DP  RH WIND       PRES   REMARKS
CUT BANK       MOCLDY    37  34  89 CALM      30.01S
GREAT FALLS    MOCLDY    45  36  71 W3        30.01R
HELENA         MOCLDY    45  36  71 W3        30.08R
MALMSTROM AFB  MOCLDY    43  39  86 S6        30.02S
* CONRAD       MOCLDY    37  37 100 N/A        N/A
* EAST GLACIER N/A       48  30  50 N9         N/A
* MONARCH      N/A       47  27  46 S2         N/A
* PENDROY      N/A       51  34  52 N/A        N/A
* ROGERS PASS  N/A       54  25  33 W6         N/A
* SAINT MARY   N/A       32  30  92 S3         N/A
* SWEET GRASS  N/A       54  37  53 SW6        N/A
$$

MTZ011-013-016-021-035-040-045-047-050-051-161400-
NORTH CENTRAL MONTANA
CITY           SKY/WX    TMP DP  RH WIND       PRES   REMARKS
HAVRE          PTCLDY    37  37 100 W5        29.99S WCI  33
LEWISTOWN      PTCLDY    45  34  65 SE7       30.04S
* CHINOOK      PTCLDY    39  37  93 SW3       29.99S VSB 2 1/2
* FORT BENTON  PTCLDY    43  37  79 CALM      30.01R
* CHESTER      N/A       38  34  86 NE1        N/A
* DENTON       N/A       37  36  96 SW1        N/A
* GEYSER       N/A       43  37  79 S9         N/A
* JUDITH GAP   N/A       49  37  63 SE3        N/A
* LOMA         N/A       42  40  93 W1         N/A
$$

MTZ017>020-022>027-061-062-161400-
NORTHEAST MONTANA
CITY           SKY/WX    TMP DP  RH WIND       PRES   REMARKS
GLASGOW        CLEAR     46  34  63 E10       30.00R
GLENDIVE       CLEAR     39  34  82 N5        30.03R WCI  35
JORDAN         CLEAR     37  36  96 CALM      30.00R
SIDNEY         PTCLDY    36  34  92 CALM      30.04S
WOLF POINT     CLEAR     36  30  79 E3        30.02S
* BEAVER HILL  N/A       44  40  86 E3         N/A
* CIRCLE       N/A       40  36  86 N/A        N/A
* LINDSAY DVD  N/A       52  35  52 NE2        N/A
* NAVAJO       N/A       49  32  52 SW9        N/A
* SACO         N/A       38  36  93 NE2        N/A
$$

MTZ028>042-056>058-161400-
SOUTHCENTRAL AND SOUTHEAST MONTANA
CITY           SKY/WX    TMP DP  RH WIND       PRES   REMARKS
BAKER          CLEAR     39  39 100 CALM      30.03S
BILLINGS       MOCLDY    52  43  72 SW17      30.04S
LIVINGSTON     MOCLDY    39  32  76 W3        30.11R
MILES CITY     CLEAR     41  37  86 CALM      30.02R
* LAUREL APT   MOCLDY    46  39  77 SW7        N/A
* ROUNDUP APT  PTCLDY    46  37  71 S11G17     N/A
* ALZADA       N/A       43  41  93 E1         N/A
* HYSHAM       N/A       51  41  69 W5         N/A
* LAME DEER    N/A       63  35  35 W8         N/A
* REED POINT   N/A       41  39  93 W4         N/A
* ROSCOE HILL  N/A       57  17  21 SE6        N/A
$$

REGIONAL REPORTS...DAKOTAS
CITY           SKY/WX    TMP DP  RH WIND       PRES   REMARKS
WILLISTON      FOG       34  30  85 CALM      30.02S
DICKINSON      CLEAR     37  36  96 CALM      30.01S
BEACH          N/A       39  39 100 S5        30.03R WCI  35
CROSBY         CLEAR     39  37  93 SW10      30.01S WCI  32
TIOGA          CLEAR     30  30 100 CALM      30.05S
WATFORD CITY   FOG       32  32 100 SW3       30.01S VSB 1 3/4
BISMARCK       CLEAR     43  37  79 NE5       30.06S
GRAND FORKS    PTCLDY    45  39  80 CALM      30.04S
FARGO          CLEAR     45  37  74 S8        30.09S
BUFFALO SD     CLEAR     43  39  86 W3        29.97S
RAPID CITY     CLEAR     43  39  86 NW3       30.03F
$$

REGIONAL REPORTS...WYOMING/IDAHO/WASHINGTON
CITY           SKY/WX    TMP DP  RH WIND       PRES   REMARKS
GILLETTE       PTCLDY    46  39  77 CALM      30.09R
SHERIDAN       CLEAR     45  36  71 N6        30.06R
CODY           PTCLDY    55  36  49 S10       30.12S
YELLOWSTONE LA PTCLDY    34  30  85 CALM      30.36R
SALMON         PTCLDY    43  36  76 SE3       30.12R
MULLAN PASS    CLEAR     63  25  24 S3        30.11S
SAND POINT     PTCLDY    39  39 100 CALM      29.97S
SPOKANE        MOCLDY    57  37  47 NE9       29.91F
$$

REGIONAL REPORTS...ALBERTA
CITY           SKY/WX    TMP DP  RH WIND       PRES   REMARKS
CALGARY        FAIR      45  37  74 S3        29.97S
LETHBRIDGE     PTCLDY    41  37  86 S5        29.96S
MEDICINE HAT   FAIR      41  39  93 S5        29.96S
EDMONTON       FOG       36  34  92 SW3       29.91S
WATERTON GATE  N/A       50  36  59 S8         N/A
CARDSTON       N/A       37  36  96 SW3        N/A
$$

REGIONAL REPORTS...SASKATCHEWAN
CITY           SKY/WX    TMP DP  RH WIND       PRES   REMARKS
MOOSE JAW      FAIR      43  39  86 SW3       29.99R
REGINA         FAIR      39  36  89 SE5       29.99S WCI  35
VAL MARIE      N/A       36  34  92 NE3        N/A
ASSINIBOIA     N/A       37  34  89 S3         N/A
CORONACH       N/A       34  32  92 SE1        N/A

$$




USA.gov is the U.S. government's official web portal to all federal, state and local government web resources and services.